Redhead, Trinidad And Tobago

11:42 AM AST on January 22, 2017 (GMT -0400)
Scarborough

Weather History for TTCP - October, 2011

Change the Weather History Date:

Monday, October 3, 2011

  Actual Average Record
Temperature  
Mean Temperature 84 °F -  
Max Temperature 89 °F 85 °F 91 °F (1997)
Min Temperature 78 °F 76 °F 73 °F (2014)
Cooling Degree Days 18    
Growing Degree Days 34 (Base 50)    
Moisture  
Dew Point 75 °F    
Average Humidity 80    
Maximum Humidity 94    
Minimum Humidity 70    
Precipitation  
Precipitation 0.00 in - - ()
Sea Level Pressure  
Sea Level Pressure 29.90 in    
Wind  
Wind Speed 8 mph ()    
Max Wind Speed 21 mph    
Max Gust Speed -    
Visibility 6.0 miles    
Events Rain    
Averages and records for this station are not official NWS values.
T = Trace of Precipitation, MM = Missing Value Source: Averaged Metar Reports

Daily Weather History Graph

Daily Weather History Graph

Search for Another Location

Airport or City:

Trip Planner

Search our weather history database for the weather conditions in past years. The results will help you decide how hot, cold, wet, or windy it might be!

Date:

Astronomy

Oct. 03, 2011 Rise Set
Actual Time 5:52 AM AST 5:52 PM AST
Civil Twilight 5:31 AM AST 6:13 PM AST
Nautical Twilight 5:06 AM AST 6:38 PM AST
Astronomical Twilight 4:42 AM AST 7:02 PM AST
Moon 11:52 AM AST (10/3) 11:41 PM AST (10/3)
Length of Visible Light 12h 42m
Length of Day
12h 00m
Waxing Crescent, 45% of the Moon is Illuminated
Oct 3
Waxing Crescent
Oct 3
First Quarter
Oct 11
Full
Oct 19
Last Quarter
Oct 26
New

Hourly Weather History & Observations

Time (AST) Temp. Heat Index Dew Point Humidity Pressure Visibility Wind Dir Wind Speed Gust Speed Precip Events Conditions
12:00 AM 78.8 °F - 73.4 °F 83% 29.92 in 6.2 mi NE 3.5 mph - N/A   Mostly Cloudy
1:00 AM 78.8 °F - 73.4 °F 83% 29.89 in 6.2 mi ENE 8.1 mph - N/A   Mostly Cloudy
2:00 AM 78.8 °F - 71.6 °F 78% 29.89 in 6.2 mi ENE 8.1 mph - N/A   Mostly Cloudy
4:00 AM 78.8 °F - 71.6 °F 78% 29.86 in 6.2 mi NE 3.5 mph - N/A   Mostly Cloudy
6:00 AM 78.8 °F - 73.4 °F 83% 29.92 in 6.2 mi East 11.5 mph - N/A   Mostly Cloudy
7:00 AM 80.6 °F 84.6 °F 71.6 °F 74% 29.92 in 6.2 mi ENE 8.1 mph - N/A   Mostly Cloudy
8:00 AM 84.2 °F 94.1 °F 77.0 °F 79% 29.95 in 6.2 mi East 10.4 mph - N/A   Scattered Clouds
9:00 AM 87.8 °F 102.5 °F 78.8 °F 75% 29.95 in 6.2 mi East 16.1 mph - N/A   Scattered Clouds
10:00 AM 89.6 °F 104.7 °F 78.8 °F 70% 29.95 in 6.2 mi ESE 20.7 mph - N/A   Scattered Clouds
11:00 AM 87.8 °F 99.7 °F 77.0 °F 70% 29.95 in 6.2 mi East 15.0 mph - N/A   Scattered Clouds
12:00 PM 86.0 °F 96.9 °F 77.0 °F 74% 29.92 in 6.2 mi East 13.8 mph - N/A   Scattered Clouds
1:00 PM 86.0 °F 99.3 °F 78.8 °F 79% 29.89 in 6.2 mi East 12.7 mph - N/A   Scattered Clouds
1:15 PM 80.6 °F 87.1 °F 77.0 °F 89% 29.89 in 2.5 mi East 11.5 mph - N/A Rain Rain Showers
2:00 PM 78.8 °F - 77.0 °F 94% 29.89 in 6.2 mi NNW 6.9 mph - N/A   Mostly Cloudy
3:00 PM 82.4 °F 90.9 °F 77.0 °F 84% 29.86 in 6.2 mi NNE 9.2 mph - N/A   Mostly Cloudy
4:00 PM 82.4 °F 90.9 °F 77.0 °F 84% 29.83 in 6.2 mi East 12.7 mph - N/A   Mostly Cloudy
5:00 PM 84.2 °F 92.3 °F 75.2 °F 74% 29.83 in 6.2 mi East 11.5 mph - N/A   Mostly Cloudy
6:00 PM 82.4 °F 89.5 °F 75.2 °F 79% 29.86 in 6.2 mi East 8.1 mph - N/A   Mostly Cloudy
7:00 PM 80.6 °F 87.1 °F 77.0 °F 89% 29.86 in 6.2 mi Calm Calm - N/A   Mostly Cloudy
10:00 PM 78.8 °F - 71.6 °F 78% 29.92 in 6.2 mi Calm Calm - N/A   Scattered Clouds
11:00 PM 78.8 °F - 73.4 °F 83% 29.92 in 6.2 mi East 18.4 mph - N/A   Scattered Clouds